Weather History for KLWT - February, 2012

Change the Weather History Date:

Monday, February 20, 2012

  Actual Average Record
Temperature  
Mean Temperature 27 °F 26 °F  
Max Temperature 31 °F 37 °F 62 °F (1995)
Min Temperature 23 °F 16 °F -36 °F (1918)
Degree Days  
Heating Degree Days 38 39  
Month to date heating degree days 761 797  
Since 1 July heating degree days 4960 5502  
Cooling Degree Days 0 0  
Month to date cooling degree days 0 0  
Year to date cooling degree days 0 0  
Moisture  
Dew Point 20 °F    
Average Humidity 75    
Maximum Humidity 100    
Minimum Humidity 50    
Precipitation  
Precipitation 0.04 in 0.01 in 0.35 in (1920)
Month to date precipitation 0.05 0.31  
Year to date precipitation 0.63 0.88  
Snow  
Snow 0.00 in - - ()
Snow Depth -    
Sea Level Pressure  
Sea Level Pressure 29.84 in    
Wind  
Wind Speed 11 mph (West)    
Max Wind Speed 22 mph    
Max Gust Speed 30 mph    
Visibility 6 miles    
Events Snow    
T = Trace of Precipitation, MM = Missing Value Source: NWS Daily Summary

Daily Weather History Graph

Daily Weather History Graph

Search for Another Location

Airport or City:

Trip Planner

Search our weather history database for the weather conditions in past years. The results will help you decide how hot, cold, wet, or windy it might be!

Date:

Astronomy

Feb. 20, 2012 Rise Set
Actual Time 7:14 AM MST 5:49 PM MST
Civil Twilight 6:43 AM MST 6:20 PM MST
Nautical Twilight 6:08 AM MST 6:55 PM MST
Astronomical Twilight 5:33 AM MST 7:31 PM MST
Moon 6:15 AM MST (2/20) 4:57 PM MST (2/20)
Length of Visible Light 11h 36m
Length of Day
10h 34m
Waning Crescent, 1% of the Moon is Illuminated
Feb 20
Waning Crescent
Feb 21
New
Feb 29
First Quarter
Mar 8
Full
Mar 14
Last Quarter

Hourly Weather History & Observations

Time (MST) Temp. Windchill Dew Point Humidity Pressure Visibility Wind Dir Wind Speed Gust Speed Precip Events Conditions
12:54 AM 24.1 °F 12.5 °F 14.0 °F 65% 29.85 in 10.0 mi SW 12.7 mph - N/A   Clear
1:54 AM 23.0 °F 10.6 °F 12.9 °F 65% 29.85 in 10.0 mi SW 13.8 mph - N/A   Clear
2:54 AM 25.0 °F 12.2 °F 12.0 °F 58% 29.84 in 10.0 mi WSW 16.1 mph - N/A   Clear
3:54 AM 23.0 °F 10.6 °F 12.0 °F 63% 29.83 in 10.0 mi SW 13.8 mph - N/A   Clear
4:54 AM 24.1 °F 12.0 °F 12.9 °F 62% 29.83 in 10.0 mi WSW 13.8 mph - N/A   Clear
5:54 AM 27.0 °F 14.3 °F 12.0 °F 53% 29.84 in 10.0 mi WSW 17.3 mph - N/A   Mostly Cloudy
6:54 AM 27.0 °F 16.7 °F 12.0 °F 53% 29.84 in 10.0 mi WSW 11.5 mph - N/A   Overcast
7:54 AM 26.1 °F 17.6 °F 12.9 °F 58% 29.87 in 10.0 mi WSW 8.1 mph - N/A   Overcast
8:54 AM 28.0 °F 18.6 °F 12.9 °F 53% 29.89 in 10.0 mi West 10.4 mph - N/A   Overcast
9:54 AM 28.0 °F - 14.0 °F 56% 29.89 in 10.0 mi North - - N/A   Overcast
10:54 AM 28.9 °F 16.5 °F 17.1 °F 61% 29.89 in 10.0 mi WNW 18.4 mph - 0.00 in   Overcast
11:54 AM 30.9 °F 19.4 °F 18.0 °F 59% 29.87 in 10.0 mi NW 17.3 mph 24.2 mph N/A   Overcast
1:54 PM 30.0 °F 21.1 °F 21.9 °F 72% 29.86 in 7.0 mi NW 10.4 mph 19.6 mph 0.00 in Snow Light Snow
2:31 PM 28.4 °F 19.7 °F 21.2 °F 74% 29.77 in 1.8 mi NW 9.2 mph 18.4 mph 0.00 in Snow Light Snow
2:41 PM 28.4 °F 19.7 °F 21.2 °F 74% 29.76 in 4.0 mi NW 9.2 mph - 0.00 in Snow Light Snow
2:54 PM 28.9 °F 20.4 °F 21.0 °F 72% 29.87 in 10.0 mi NW 9.2 mph - 0.00 in   Mostly Cloudy
3:54 PM 30.0 °F 22.4 °F 21.0 °F 69% 29.87 in 10.0 mi NNW 8.1 mph - N/A   Overcast
4:33 PM 28.4 °F 21.2 °F 21.2 °F 74% 29.77 in 2.5 mi WNW 6.9 mph - 0.00 in Snow Light Snow
4:41 PM 28.4 °F 22.2 °F 21.2 °F 74% 29.77 in 6.0 mi NW 5.8 mph - 0.00 in Snow Light Snow
4:49 PM 28.4 °F 21.2 °F 21.2 °F 74% 29.78 in 9.0 mi WNW 6.9 mph - 0.00 in   Overcast
4:54 PM 28.9 °F 21.9 °F 23.0 °F 78% 29.88 in 9.0 mi WNW 6.9 mph - 0.00 in   Overcast
5:06 PM 28.4 °F 21.2 °F 23.0 °F 80% 29.78 in 2.0 mi WNW 6.9 mph - 0.00 in Snow Light Snow
5:32 PM 26.6 °F 19.1 °F 24.8 °F 93% 29.78 in 1.0 mi West 6.9 mph - 0.00 in Snow Light Snow
5:47 PM 26.6 °F 18.2 °F 24.8 °F 93% 29.79 in 0.8 mi West 8.1 mph - 0.01 in Snow Light Snow
5:54 PM 26.1 °F 17.6 °F 25.0 °F 96% 29.89 in 0.8 mi West 8.1 mph - 0.01 in Snow Light Snow
6:14 PM 26.6 °F 19.1 °F 24.8 °F 93% 29.80 in 1.8 mi WNW 6.9 mph - 0.01 in Snow Light Snow
6:28 PM 26.6 °F 19.1 °F 24.8 °F 93% 29.80 in 2.0 mi West 6.9 mph - 0.01 in Snow Light Snow
6:46 PM 26.6 °F 21.2 °F 24.8 °F 93% 29.80 in 1.5 mi WNW 4.6 mph - 0.02 in Snow Light Snow
6:54 PM 26.1 °F 20.5 °F 25.0 °F 96% 29.91 in 2.0 mi WNW 4.6 mph - 0.02 in Snow Light Snow
7:38 PM 24.8 °F 20.5 °F 24.8 °F 100% 29.80 in 1.8 mi WSW 3.5 mph - 0.01 in Snow Light Snow
7:49 PM 24.8 °F 19.1 °F 24.8 °F 100% 29.80 in 3.0 mi WSW 4.6 mph - 0.01 in Snow Light Snow
7:50 PM 25.0 °F 20.7 °F 24.1 °F 96% 29.91 in 3.0 mi WSW 3.5 mph - 0.01 in Snow Light Snow
8:04 PM 24.8 °F 19.1 °F 23.0 °F 93% 29.80 in 4.0 mi WSW 4.6 mph - 0.00 in Snow Light Snow
8:17 PM 24.8 °F 19.1 °F 24.8 °F 100% 29.80 in 2.5 mi WSW 4.6 mph - 0.00 in Snow Light Snow
8:45 PM 24.8 °F 17.9 °F 23.0 °F 93% 29.80 in 4.0 mi SW 5.8 mph - 0.00 in Snow Light Snow
8:54 PM 25.0 °F 18.1 °F 23.0 °F 92% 29.90 in 7.0 mi SW 5.8 mph - 0.00 in Snow Light Snow
9:54 PM 24.1 °F 16.0 °F 21.9 °F 91% 29.90 in 10.0 mi SSW 6.9 mph - 0.00 in   Overcast
10:54 PM 23.0 °F 14.7 °F 19.9 °F 88% 29.89 in 10.0 mi SW 6.9 mph - N/A   Overcast
11:54 PM 24.1 °F 16.0 °F 21.0 °F 88% 29.85 in 10.0 mi SSW 6.9 mph - N/A   Overcast